2023/05/15 00:00:00,61.8,12.3
2023/05/15 00:10:00,61.9,12.0
2023/05/15 00:20:00,61.8,12.0
2023/05/15 00:30:00,61.7,12.0
2023/05/15 00:40:00,61.6,12.0
2023/05/15 00:50:00,61.4,12.4
2023/05/15 01:00:00,62.2,12.5
2023/05/15 01:10:00,61.8,13.0
2023/05/15 01:20:00,54.5,12.9
2023/05/15 01:30:00,53.1,12.9
2023/05/15 01:40:00,50.3,12.4
2023/05/15 01:50:00,52.1,12.7
2023/05/15 02:00:00,57.1,12.1
2023/05/15 02:10:00,53.3,11.8
2023/05/15 02:20:00,55.6,11.7
2023/05/15 02:30:00,58.2,11.8
2023/05/15 02:40:00,58.2,11.7
2023/05/15 02:50:00,54.5,11.5
2023/05/15 03:00:00,51.2,11.4
2023/05/15 03:10:00,59.7,11.3
2023/05/15 03:20:00,56.9,11.3
2023/05/15 03:30:00,58.2,11.5
2023/05/15 03:40:00,58.6,11.2
2023/05/15 03:50:00,59.2,11.1
2023/05/15 04:00:00,60.9,11.1
2023/05/15 04:10:00,62.3,11.0
2023/05/15 04:20:00,62.2,11.4
2023/05/15 04:30:00,61.5,11.5
2023/05/15 04:40:00,61.8,11.5
2023/05/15 04:50:00,61.4,11.7
2023/05/15 05:00:00,59.9,12.0
2023/05/15 05:10:00,59.2,12.2
2023/05/15 05:20:00,55.8,12.3
2023/05/15 05:30:00,57.1,12.3
2023/05/15 05:40:00,58.9,12.8
2023/05/15 05:50:00,60.1,13.1
2023/05/15 06:00:00,61.4,13.4
2023/05/15 06:10:00,61.4,13.9
2023/05/15 06:20:00,61.5,14.3
2023/05/15 06:30:00,61.4,14.1
2023/05/15 06:40:00,61.3,14.5
2023/05/15 06:50:00,61.3,15.1
2023/05/15 07:00:00,61.1,15.4
2023/05/15 07:10:00,61.1,16.8
2023/05/15 07:20:00,60.9,17.6
2023/05/15 07:30:00,61.3,17.9
2023/05/15 07:40:00,61.1,18.6
2023/05/15 07:50:00,60.6,19.7
2023/05/15 08:00:00,61.2,18.4
2023/05/15 08:10:00,61.5,19.0
2023/05/15 08:20:00,59.9,20.6
2023/05/15 08:30:00,59.3,22.3
2023/05/15 08:40:00,58.4,22.4
2023/05/15 08:50:00,58.9,23.4
2023/05/15 09:00:00,59.5,25.2
2023/05/15 09:10:00,59.7,25.7
2023/05/15 09:20:00,59.2,26.3
2023/05/15 09:30:00,59.0,25.4
2023/05/15 09:40:00,59.0,25.8
2023/05/15 09:50:00,59.1,26.1
2023/05/15 10:00:00,58.9,26.0
2023/05/15 10:10:00,59.5,25.8
2023/05/15 10:20:00,59.5,26.4
2023/05/15 10:30:00,59.6,25.7
2023/05/15 10:40:00,63.2,25.7
2023/05/15 10:50:00,62.8,25.4
2023/05/15 11:00:00,62.0,25.4
2023/05/15 11:10:00,62.6,25.1
2023/05/15 11:20:00,63.3,25.5
2023/05/15 11:30:00,63.4,25.1
2023/05/15 11:40:00,60.3,24.8
2023/05/15 11:50:00,61.1,23.8
2023/05/15 12:00:00,59.3,23.1
2023/05/15 12:10:00,57.8,23.5
2023/05/15 12:20:00,60.4,23.6
2023/05/15 12:30:00,56.8,22.6
2023/05/15 12:40:00,54.9,22.6
2023/05/15 12:50:00,59.1,23.1
2023/05/15 13:00:00,56.9,23.1
2023/05/15 13:10:00,---,22.9
2023/05/15 13:20:00,55.3,23.4
2023/05/15 13:30:00,52.2,23.4
2023/05/15 13:40:00,57.1,23.7
2023/05/15 13:50:00,58.6,23.9
2023/05/15 14:00:00,---,23.7
2023/05/15 14:10:00,57.4,23.4
2023/05/15 14:20:00,61.1,23.3
2023/05/15 14:30:00,57.3,22.2
2023/05/15 14:40:00,56.6,24.2
2023/05/15 14:50:00,60.0,24.7
2023/05/15 15:00:00,60.2,24.7
2023/05/15 15:10:00,58.6,25.1
2023/05/15 15:20:00,58.7,25.4
2023/05/15 15:30:00,58.6,26.5
2023/05/15 15:40:00,60.3,26.1
2023/05/15 15:50:00,60.0,26.1
2023/05/15 16:00:00,58.5,25.8
2023/05/15 16:10:00,58.3,26.1
2023/05/15 16:20:00,57.1,26.1
2023/05/15 16:30:00,59.0,26.5
2023/05/15 16:40:00,57.6,24.8
2023/05/15 16:50:00,56.1,24.4
2023/05/15 17:00:00,56.6,24.3
2023/05/15 17:10:00,57.2,24.0
2023/05/15 17:20:00,54.2,23.9
2023/05/15 17:30:00,57.4,23.9
2023/05/15 17:40:00,58.5,23.0
2023/05/15 17:50:00,57.9,23.3
2023/05/15 18:00:00,54.7,23.1
2023/05/15 18:10:00,53.1,22.3
2023/05/15 18:20:00,54.1,21.4
2023/05/15 18:30:00,52.9,20.7
2023/05/15 18:40:00,52.2,18.3
2023/05/15 18:50:00,52.2,17.1
2023/05/15 19:00:00,52.8,16.5
2023/05/15 19:10:00,54.2,16.2
2023/05/15 19:20:00,56.5,15.7
2023/05/15 19:30:00,56.0,15.0
2023/05/15 19:40:00,56.9,14.8
2023/05/15 19:50:00,56.5,14.5
2023/05/15 20:00:00,57.4,14.2
2023/05/15 20:10:00,56.7,13.9
2023/05/15 20:20:00,56.4,13.9
2023/05/15 20:30:00,56.6,13.4
2023/05/15 20:40:00,56.9,13.4
2023/05/15 20:50:00,57.0,13.2
2023/05/15 21:00:00,57.0,13.0
2023/05/15 21:10:00,57.3,12.9
2023/05/15 21:20:00,57.3,12.6
2023/05/15 21:30:00,57.0,12.8
2023/05/15 21:40:00,57.7,12.9
2023/05/15 21:50:00,57.7,13.0
2023/05/15 22:00:00,57.7,12.8
2023/05/15 22:10:00,58.4,12.8
2023/05/15 22:20:00,58.1,13.1
2023/05/15 22:30:00,57.8,12.5
2023/05/15 22:40:00,57.7,12.6
2023/05/15 22:50:00,57.2,12.8
2023/05/15 23:00:00,57.3,12.4
2023/05/15 23:10:00,57.4,12.3
2023/05/15 23:20:00,57.7,12.4
2023/05/15 23:30:00,57.5,12.3
2023/05/15 23:40:00,56.4,12.2
2023/05/15 23:50:00,56.3,12.0
